Meadow Lake, CO

10:01 AM MST on January 18, 2018 (GMT -0700)
Meadow Lake

Weather History for KFLY - March, 2014

Change the Weather History Date:

Saturday, March 22, 2014

  Actual Average (KCOS) Record (KCOS)
Temperature  
Mean Temperature 24 °F -  
Max Temperature 26 °F 51 °F 73 °F (2004)
Min Temperature 19 °F 27 °F -2 °F (1898)
Degree Days  
Heating Degree Days 42    
Moisture  
Dew Point 20 °F    
Average Humidity 87    
Maximum Humidity 99    
Minimum Humidity 56    
Precipitation  
Precipitation 0.00 in - - ()
Sea Level Pressure  
Sea Level Pressure 30.12 in    
Wind  
Wind Speed 8 mph (SSE)    
Max Wind Speed 16 mph    
Max Gust Speed 23 mph    
Visibility 6 miles    
Events Fog , Snow    
Averages and records for this station are not official NWS values.
T = Trace of Precipitation, MM = Missing Value Source: NWS Daily Summary

Daily Weather History Graph

Daily Weather History Graph

Search for Another Location

Airport or City:

Trip Planner

Search our weather history database for the weather conditions in past years. The results will help you decide how hot, cold, wet, or windy it might be!

Date:

Astronomy

Mar. 22, 2014 Rise Set
Actual Time 6:58 AM MDT 7:12 PM MDT
Civil Twilight 6:31 AM MDT 7:38 PM MDT
Nautical Twilight 6:00 AM MDT 8:10 PM MDT
Astronomical Twilight 5:29 AM MDT 8:42 PM MDT
Moon 12:31 AM MDT (3/22) 10:46 AM MDT (3/22)
Length of Visible Light 13h 07m
Length of Day
12h 13m
Waning Gibbous, 65% of the Moon is Illuminated
Mar 22
Waning Gibbous
Mar 23
Last Quarter
Mar 30
New
Apr 7
First Quarter
Apr 15
Full

Hourly Weather History & Observations

Time (MDT) Temp. Windchill Dew Point Humidity Pressure Visibility Wind Dir Wind Speed Gust Speed Precip Events Conditions
12:10 AM 28.9 °F 19.8 °F 14.9 °F 56% 30.12 in 10.0 mi SSE 10.4 mph - N/A   Scattered Clouds
12:30 AM 27.9 °F 18.4 °F 14.5 °F 57% 30.12 in 10.0 mi SSE 10.4 mph - N/A   Clear
12:50 AM 26.8 °F 17.7 °F 14.2 °F 59% 30.11 in 10.0 mi South 9.2 mph - N/A   Clear
1:10 AM 26.1 °F 17.6 °F 14.0 °F 60% 30.11 in 10.0 mi South 8.1 mph - N/A   Clear
1:30 AM 25.0 °F 19.3 °F 14.0 °F 63% 30.11 in 10.0 mi SSW 4.6 mph - N/A   Clear
1:50 AM 24.8 °F 16.1 °F 14.0 °F 64% 30.11 in 10.0 mi South 8.1 mph - N/A   Clear
2:10 AM 25.2 °F 16.5 °F 14.0 °F 63% 30.10 in 10.0 mi SSW 8.1 mph - N/A   Clear
2:30 AM 24.8 °F 15.3 °F 13.8 °F 63% 30.09 in 10.0 mi SSW 9.2 mph - N/A   Clear
2:50 AM 24.3 °F 15.4 °F 13.8 °F 64% 30.08 in 10.0 mi SSW 8.1 mph - N/A   Clear
3:10 AM 23.9 °F 13.5 °F 13.8 °F 65% 30.07 in 10.0 mi SSW 10.4 mph - N/A   Clear
3:30 AM 23.7 °F 13.3 °F 13.8 °F 66% 30.06 in 10.0 mi SSW 10.4 mph - N/A   Clear
3:50 AM 23.0 °F 13.1 °F 13.5 °F 67% 30.06 in 10.0 mi South 9.2 mph - N/A   Clear
4:10 AM 23.4 °F 12.2 °F 13.8 °F 67% 30.06 in 10.0 mi South 11.5 mph - N/A   Clear
4:30 AM 23.0 °F 11.7 °F 14.2 °F 69% 30.06 in 10.0 mi SSE 11.5 mph 19.6 mph N/A   Clear
4:50 AM 22.1 °F 10.6 °F 14.9 °F 74% 30.06 in 10.0 mi SSE 11.5 mph - N/A   Clear
5:10 AM 21.0 °F 11.4 °F 15.3 °F 78% 30.06 in 10.0 mi SSE 8.1 mph - N/A   Scattered Clouds
5:30 AM 20.3 °F 9.0 °F 16.7 °F 86% 30.06 in 10.0 mi South 10.4 mph - N/A   Mostly Cloudy
5:50 AM 19.4 °F 10.4 °F 17.2 °F 91% 30.06 in 10.0 mi South 6.9 mph - N/A   Mostly Cloudy
6:10 AM 20.1 °F 9.5 °F 18.0 °F 91% 30.06 in 10.0 mi SSE 9.2 mph - N/A   Overcast
6:30 AM 19.9 °F 7.3 °F 18.7 °F 95% 30.06 in 10.0 mi SSE 12.7 mph 18.4 mph N/A   Overcast
6:50 AM 19.9 °F 7.3 °F 19.4 °F 98% 30.06 in 2.0 mi South 12.7 mph 18.4 mph N/A   Overcast
7:10 AM 20.1 °F 6.4 °F 19.6 °F 98% 30.06 in 0.2 mi South 15.0 mph - N/A Fog Light Freezing Fog
7:30 AM 19.8 °F 8.3 °F 19.6 °F 99% 30.06 in 0.2 mi SSE 10.4 mph 17.3 mph N/A Fog Light Freezing Fog
7:50 AM 20.3 °F 9.0 °F 19.9 °F 99% 30.06 in 0.2 mi South 10.4 mph - N/A Snow Light Snow
8:10 AM 20.3 °F 7.7 °F 20.1 °F 99% 30.06 in 0.2 mi South 12.7 mph 23.0 mph N/A Snow Light Snow
8:30 AM 21.0 °F 9.3 °F 20.7 °F 99% 30.06 in 0.2 mi South 11.5 mph - N/A Fog Light Freezing Fog
8:50 AM 20.8 °F 6.8 °F 20.3 °F 98% 30.06 in 0.2 mi South 16.1 mph 19.6 mph N/A Fog Light Freezing Fog
9:10 AM 20.8 °F 7.9 °F 20.3 °F 98% 30.05 in 0.2 mi South 13.8 mph 21.9 mph N/A Fog Light Freezing Fog
9:30 AM 20.7 °F 6.6 °F 19.9 °F 97% 30.05 in 0.2 mi South 16.1 mph 19.6 mph N/A Fog Light Freezing Fog
9:50 AM 21.2 °F 9.5 °F 20.5 °F 97% 30.06 in 0.2 mi South 11.5 mph 17.3 mph N/A Fog Light Freezing Fog
10:10 AM 21.0 °F 8.6 °F 20.3 °F 97% 30.05 in 0.2 mi South 12.7 mph - N/A Fog Light Freezing Fog
10:30 AM 21.0 °F 8.6 °F 20.3 °F 97% 30.04 in 0.2 mi SSE 12.7 mph - N/A Fog Light Freezing Fog
10:50 AM 21.2 °F 9.5 °F 20.7 °F 98% 30.04 in 0.2 mi South 11.5 mph - N/A Fog Light Freezing Fog
11:10 AM 21.6 °F 12.1 °F 20.8 °F 97% 30.04 in 0.2 mi SSE 8.1 mph - N/A Fog Light Freezing Fog
11:30 AM 21.7 °F 10.2 °F 21.0 °F 97% 30.04 in 1.2 mi South 11.5 mph - N/A   Overcast
11:50 AM 22.1 °F 12.8 °F 21.2 °F 96% 30.05 in 1.5 mi SSE 8.1 mph - N/A   Overcast
12:10 PM 22.1 °F 13.7 °F 21.6 °F 98% 30.05 in 1.2 mi SSE 6.9 mph - N/A   Overcast
12:30 PM 22.5 °F 17.8 °F 21.7 °F 97% 30.05 in 2.0 mi SE 3.5 mph - N/A   Overcast
12:50 PM 22.6 °F 18.0 °F 21.9 °F 97% 30.06 in 7.0 mi East 3.5 mph - N/A   Overcast
1:10 PM 22.8 °F - 21.9 °F 96% 30.06 in 10.0 mi Calm Calm - N/A   Overcast
1:30 PM 23.0 °F - 21.9 °F 96% 30.06 in 10.0 mi Calm Calm - N/A   Overcast
1:50 PM 23.2 °F 17.2 °F 22.3 °F 96% 30.06 in 10.0 mi East 4.6 mph - N/A   Overcast
2:10 PM 23.4 °F 16.2 °F 22.1 °F 95% 30.06 in 10.0 mi NNE 5.8 mph - N/A   Overcast
2:30 PM 23.5 °F 16.4 °F 22.3 °F 95% 30.08 in 10.0 mi East 5.8 mph - N/A   Overcast
2:50 PM 24.8 °F 19.1 °F 22.8 °F 92% 30.08 in 10.0 mi NNW 4.6 mph - N/A   Overcast
3:10 PM 24.6 °F 17.7 °F 22.8 °F 93% 30.09 in 1.5 mi ENE 5.8 mph - N/A Snow Light Snow
3:30 PM 24.8 °F 19.1 °F 23.2 °F 94% 30.09 in 0.5 mi NE 4.6 mph - N/A Snow Snow
3:50 PM 25.2 °F 19.5 °F 23.5 °F 94% 30.10 in 0.5 mi East 4.6 mph - N/A Snow Snow
4:10 PM 25.5 °F 21.3 °F 23.7 °F 93% 30.10 in 0.2 mi NE 3.5 mph - N/A Snow Snow
4:30 PM 26.1 °F 21.9 °F 23.9 °F 92% 30.12 in 1.0 mi ENE 3.5 mph - N/A Snow Light Snow
4:50 PM 25.0 °F - 23.0 °F 92% 30.13 in 0.8 mi Calm Calm - N/A Snow Light Snow
5:10 PM 24.8 °F - 23.0 °F 93% 30.14 in 0.2 mi Calm Calm - N/A Snow Snow
5:30 PM 25.2 °F - 23.5 °F 94% 30.16 in 1.0 mi Calm Calm - N/A Snow Light Snow
5:50 PM 25.3 °F - 23.7 °F 94% 30.16 in 1.5 mi Calm Calm - N/A Snow Light Snow
6:10 PM 26.4 °F 19.8 °F 23.0 °F 87% 30.17 in 7.0 mi NNW 5.8 mph - N/A   Overcast
6:30 PM 26.2 °F 19.6 °F 22.8 °F 87% 30.18 in 7.0 mi NW 5.8 mph - N/A   Overcast
6:50 PM 26.1 °F 19.4 °F 22.5 °F 86% 30.19 in 5.0 mi NNW 5.8 mph - N/A Snow Light Snow
7:10 PM 25.7 °F 16.4 °F 21.9 °F 86% 30.20 in 10.0 mi NNW 9.2 mph - N/A   Overcast
7:30 PM 25.2 °F 15.7 °F 22.3 °F 89% 30.21 in 10.0 mi NNW 9.2 mph - N/A   Overcast
7:50 PM 24.8 °F 17.9 °F 21.9 °F 89% 30.22 in 10.0 mi NNW 5.8 mph - N/A   Overcast
8:10 PM 24.6 °F 16.7 °F 21.4 °F 87% 30.23 in 10.0 mi NNW 6.9 mph - N/A   Overcast
8:30 PM 24.4 °F 13.5 °F 21.0 °F 87% 30.24 in 10.0 mi North 11.5 mph - N/A   Overcast
8:50 PM 23.7 °F 15.6 °F 21.0 °F 89% 30.25 in 10.0 mi North 6.9 mph - N/A   Overcast
9:10 PM 23.9 °F 14.2 °F 21.6 °F 91% 30.26 in 10.0 mi North 9.2 mph - N/A   Overcast
9:30 PM 23.0 °F 14.7 °F 21.2 °F 93% 30.26 in 10.0 mi North 6.9 mph - N/A   Mostly Cloudy
9:50 PM 22.1 °F 17.4 °F 20.7 °F 94% 30.27 in 10.0 mi North 3.5 mph - N/A   Mostly Cloudy
10:10 PM 23.2 °F 18.7 °F 21.2 °F 92% 30.28 in 10.0 mi NNE 3.5 mph - N/A   Overcast
10:30 PM 23.0 °F 17.0 °F 21.2 °F 93% 30.28 in 10.0 mi ENE 4.6 mph - N/A   Overcast
10:50 PM 22.8 °F 18.2 °F 21.7 °F 96% 30.29 in 10.0 mi ENE 3.5 mph - N/A   Overcast
11:10 PM 23.0 °F - 21.9 °F 96% 30.29 in 10.0 mi Calm Calm - N/A   Overcast
11:30 PM 23.0 °F 18.4 °F 22.1 °F 96% 30.29 in 10.0 mi SSE 3.5 mph - N/A   Overcast
11:50 PM 23.0 °F 15.8 °F 22.1 °F 96% 30.29 in 10.0 mi SSE 5.8 mph - N/A   Overcast